Regional Weather Roundup
Issued by NWS Newport/Morehead, NC

Current Version | Previous Version | Graphics & Text | Print | Product List | Glossary On
Versions: 1 2 3 4 5 6 7 8 9 10 11 12 13 14 15 16 17 18 19 20 21 22 23 24 25 26 27 28 29 30 31 32 33 34 35 36 37 38 39 40 41 42 43 44 45 46 47 48 49 50
746 ASUS42 KMHX 302025 RWRMHX WEATHER ROUNDUP FOR EASTERN NORTH CAROLINA NATIONAL WEATHER SERVICE NEWPORT/MOREHEAD CITY NC 400 PM EDT SUN APR 30 2017 NOTE: "FAIR" INDICATES FEW OR NO CLOUDS BELOW 12,000 FEET WITH NO SIGNIFICANT WEATHER AND/OR OBSTRUCTIONS TO VISIBILITY NCZ015>017-031-032-045>047-102-103-302100- NORTH COAST CITY SKY/WX TMP DP RH WIND PRES REMARKS EDENTON PTSUNNY 86 67 53 SW9 30.13F ELIZABETH CITY MOSUNNY 84 69 60 SW13 30.13F KITTY HAWK CLEAR 84 69 61 SW7G16 30.13F MANTEO MOSUNNY 81 71 71 S20 30.14F $$ NCZ045>047-081-094-103-104-302100- CENTRAL COAST CITY SKY/WX TMP DP RH WIND PRES REMARKS FRISCO MOSUNNY 80 71 74 SW12 30.19F HAZE $$ NCZ095-097-098-100-101-302100- SOUTHERN COAST CITY SKY/WX TMP DP RH WIND PRES REMARKS BEAUFORT MOSUNNY 79 73 82 SW16 30.19F CEDAR ISLAND NOT AVBL JACKSONVILLE SUNNY 82 71 69 S15G22 30.16F PINEY ISLAND PTCLDY N/A N/A N/A S20G28 30.17F WILMINGTON MOSUNNY 84 66 54 SW13G26 30.18F $$ NCZ011>013-027>030-043-044-078>080-089-090>093-098-302100- COASTAL PLAIN CITY SKY/WX TMP DP RH WIND PRES REMARKS AHOSKIE N/A 85 68 57 S3 30.11F CLINTON SUNNY 86 70 57 SW6G20 30.14F ELIZABETHTOWN SUNNY 85 66 52 S13G20 30.15F GOLDSBORO MOSUNNY 87 69 56 S13G18 30.11F GREENVILLE PTSUNNY 82 70 65 SW10 30.14S HAVELOCK MOSUNNY 83 68 60 SW12G30 30.17F KENANSVILLE MOSUNNY 84 66 54 SW6 30.15S KINSTON PTSUNNY 88 64 45 SW16 30.14F NEW BERN MOSUNNY 84 67 56 SW17G24 30.16F RICHLANDS MOSUNNY 86 66 51 SW18G24 30.16F ROCKY MOUNT MOSUNNY 84 68 58 SW7 30.12F WASHINGTON MOSUNNY 84 69 60 S13 30.13F WHITEVILLE SUNNY 83 67 56 S15G21 30.16F $$ AMZ130-135-150-152-154-156-158-170-250-252-270-ANZ085-086-088-633-658-670-302100- MARINE OBSERVATIONS STATION/POSITION TIME TEMP WIND PRES WAVE SWELL AIR SEA DIR/SP/G HT/PER HT/PER (UTC) (F) (DEG/KT/KT) (MB) (FT/S) (FT/S) CHESAPEAKE LIGHT NOT AVBL 64 E VA BEACH 1950 64 61 200/ 10/ 10 1021.4 2/ 5 2/ 5 DUCK 2000 82 57 200/ 14/ 18 1019.7 2 E DUCK 2000 60 N/A 2/ 8 OREGON INLET 2000 76 79 190/ 21/ 24 1021.1 13E OREGON INLT 1948 65 N/A 3/ 5 2/ 7 HATTERAS CG 2000 77 75 210/ 9/ 15 1022.1 DIAMOND BUOY 1950 77 75 220/ 16/ 19 1022.5 3/ 4 2/ 7 CAPE LOOKOUT 2000 77 210/ 13/ 15 1022.0 BEAUFORT LAB 2000 77 74 210/ 9/ 15 1021.6 30 SE NEW RVR IN 2008 75 210/ 12/ 16 1022.5 30 SE NEW RVR IN 1943 74 N/A 4/ 6 27 SE WRIGHTSVLE 2008 76 74 200/ 12/ 17 1021.5 5 SE WRIGHTSVLE 2008 75 73 200/ 8/ 14 1022.3 225 S CAPE HAT 1950 74 76 160/ 8/ 10 1024.2 3/ 6 3/ 6 41 SE CHARLESTON 2010 77 76 170/ 16/ 17 1021.4 $$

USA.gov is the U.S. government's official web portal to all federal, state and local government web resources and services.